Flag for Italy Weather past 2 weeks in Palermo, Italy

Now
77 °F

Scattered clouds.


Feels Like: 79 °F
Forecast: 75 / 90 °F
Wind: 9 mph from Southwest

Location: Palermo / Punta Raisi

Current Time: Sep 18, 2014 at 9:57:42 AM

Latest Report: Sep 18, 2014 at 9:20 AM


Visibility: N/A

Pressure: 29.92 "Hg

Humidity: 79%

Dew point: 70 °F

Location of PalermoLocation

Historic Weather in Palermo — Graph

°F

Palermo temperature yesterday

Maximum temperature yesterday: 81 °F (at 2:20 PM)
Minimum temperature yesterday: 70 °F (at 5:20 AM)
Average temperature yesterday: 76 °F

Past Weeks' High & Low Weather Summary

 TemperatureHumidityPressure
High84 °F (Sep 10, 3:20 PM)84% (Sep 11, 2:50 PM)30.07 "Hg (Sep 11, 2:50 PM)
Low68 °F (Sep 14, 6:20 AM)44% (Sep 14, 8:50 AM)29.80 "Hg (Sep 3, 8:20 AM)
Average77 °F72%29.94 "Hg
* Reported Sep 3 8:20 AM — Sep 18 8:50 AM, Palermo, Weather by CustomWeather, © 2014

Note: Actual official high and low records may vary slightly from our data, if they occured in-between our weather recording intervals... More about our weather records

Advertising

Palermo weather history for previous 24 hours

 ConditionsComfort  
Time TempWeatherWind HumidityBarometerVisibility
8:50 AM
Sep 18
77 °FLight rain. Scattered clouds.8 mph69%29.95 "HgN/A
8:20 AM77 °FLight rain. Passing clouds.7 mph74%29.95 "HgN/A
7:50 AM77 °FPassing clouds.6 mph74%29.95 "HgN/A
7:20 AM77 °FLight rain. Passing clouds.8 mph74%29.98 "HgN/A
6:50 AM75 °FPassing clouds.9 mph83%29.98 "HgN/A
6:20 AM75 °FPassing clouds.6 mph78%29.95 "HgN/A
5:50 AM77 °FPassing clouds.9 mph79%29.92 "HgN/A
5:20 AM75 °FPassing clouds.8 mph78%29.89 "HgN/A
4:50 AM75 °FPassing clouds.6 mph78%29.92 "HgN/A
4:20 AM75 °FPassing clouds.6 mph74%29.92 "HgN/A
3:50 AM77 °FPassing clouds.10 mph74%29.92 "HgN/A
3:20 AM77 °FClear.12 mph79%29.92 "Hg10 mi
2:50 AM77 °FPassing clouds.14 mph79%29.92 "HgN/A
2:20 AM77 °FClear.17 mph79%29.92 "Hg10 mi
1:50 AM77 °FPassing clouds.6 mph79%29.92 "HgN/A
1:20 AM77 °FClear.9 mph74%29.92 "Hg10 mi
12:50 AM77 °FClear.9 mph74%29.92 "Hg10 mi
12:20 AM77 °FClear.12 mph79%29.92 "Hg10 mi
11:50 PM
Sep 17
75 °FClear.9 mph78%29.92 "Hg10 mi
11:20 PM75 °FPassing clouds.7 mph83%29.95 "HgN/A
10:50 PM77 °FPassing clouds.1 mph79%29.98 "HgN/A
10:20 PM79 °FPassing clouds.8 mph79%29.98 "HgN/A
9:50 PM77 °FPassing clouds.3 mph79%29.95 "HgN/A
9:20 PM77 °FPassing clouds.1 mph79%29.95 "HgN/A
8:50 PM77 °FPassing clouds.6 mph79%29.95 "HgN/A
8:20 PM79 °FPassing clouds.8 mph70%29.92 "HgN/A
7:50 PM79 °FPartly sunny.13 mph70%29.92 "HgN/A
7:20 PM79 °FPartly sunny.12 mph70%29.92 "HgN/A
6:50 PM79 °FScattered clouds.10 mph74%29.92 "HgN/A
6:20 PM79 °FScattered clouds.13 mph74%29.92 "HgN/A
5:50 PM81 °FSunny.15 mph70%29.92 "Hg10 mi
5:20 PM79 °FSunny.17 mph74%29.92 "Hg10 mi
4:50 PM81 °FSunny.20 mph66%29.89 "Hg10 mi
4:20 PM81 °FSunny.20 mph70%29.92 "Hg10 mi
3:50 PM81 °FSunny.18 mph70%29.92 "Hg10 mi
3:20 PM81 °FSunny.17 mph66%29.92 "Hg10 mi
2:50 PM81 °FSunny.16 mph70%29.92 "Hg10 mi
2:20 PM81 °FSunny.15 mph70%29.95 "Hg10 mi
1:50 PM79 °FSunny.14 mph70%29.95 "Hg10 mi
1:20 PM79 °FSunny.10 mph74%29.95 "Hg10 mi
12:50 PM79 °FSunny.9 mph74%29.95 "Hg10 mi
12:20 PM79 °FPassing clouds.8 mph70%29.98 "HgN/A
11:50 AM79 °FSunny.5 mph74%29.98 "Hg10 mi
11:20 AM79 °FSunny.5 mph74%29.98 "Hg10 mi
10:50 AM79 °FSunny.2 mph74%29.98 "Hg10 mi
10:20 AM77 °FSunny.5 mph74%29.95 "Hg10 mi
9:50 AM77 °FPassing clouds.3 mph74%29.95 "HgN/A
9:20 AM77 °FPassing clouds.5 mph74%29.95 "HgN/A
Weather by CustomWeather, © 2014

See weather overviewHow to use our weather pages